Inquirer Daily News

Weather

Get conditions and forecasts for any City, State, ZIP code or Country:  
Northeast Philadelphia, PA
on Thursday, January 10, 2013

Thursday
Previous Day Next Day
Daily Summary
 ActualAverage (KTTN)Record (KTTN)
Temperature
Mean Temperature °F 31°F  
Max Temperature 48°F 39°F 62°F (1950)
Min Temperature 37°F 23°F -2°F (1875)
Degree Days
Heating Degree Days 22 34  
Month to date heating degree days 339  
Since 1 July heating degree days 2234  
Cooling Degree Days 0 0  
Month to date cooling degree days 0  
Year to date cooling degree days 0  
Moisture
Dew Point 25°F   
Average Humidity 51    
Maximum Humidity 65    
Minimum Humidity 39    
Precipitation
Precipitation 0.00 in 0.10 in 1.20 in (1983)
Month to date precipitation 1.14  
Year to date precipitation 1.14  
Wind
Wind Speed 8 mph   
Max Wind Speed 14 mph   
Max Gust Speed 18 mph   
Visibility 10 miles   
Events     

Key: T is trace of precipitation, MM is missing value
Source: NWS Daily Summary
Time(EST)TemperatureDew PointHumidity Pressure Visibility Wind DirectionWind SpeedGust SpeedPrecipitationEvents Conditions
12:54 AM 44.6°F 30.2°F 57% 30.34 in 10.0 miles West 12.7 mph - N/A   Clear
1:54 AM 45.0°F 28.0°F 52% 30.38 in 10.0 miles West 10.4 mph - N/A   Clear
2:54 AM 43.0°F 26.1°F 51% 30.40 in 10.0 miles West 8.1 mph - N/A   Clear
3:54 AM 43.0°F 25.0°F 49% 30.41 in 10.0 miles WNW 9.2 mph 18.4 mph N/A   Clear
4:54 AM 42.1°F 24.1°F 49% 30.41 in 10.0 miles WNW 6.9 mph - N/A   Clear
5:54 AM 41.0°F 24.1°F 51% 30.44 in 10.0 miles WNW 5.8 mph - N/A   Clear
6:54 AM 39.0°F 24.1°F 55% 30.48 in 10.0 miles WNW 5.8 mph - N/A   Clear
7:54 AM 39.9°F 25.0°F 55% 30.51 in 10.0 miles NW 3.5 mph - N/A   Clear
8:54 AM 42.1°F 25.0°F 51% 30.53 in 10.0 miles NNW 8.1 mph - N/A   Clear
9:54 AM 44.1°F 25.0°F 47% 30.55 in 10.0 miles NNW 10.4 mph - N/A   Clear
10:54 AM 46.0°F 26.1°F 46% 30.55 in 10.0 miles NNW 10.4 mph - N/A   Clear
11:54 AM 46.9°F 26.1°F 44% 30.53 in 10.0 miles NNW 10.4 mph 17.3 mph N/A   Clear
12:54 PM 48.0°F 25.0°F 41% 30.51 in 10.0 miles North 11.5 mph - N/A   Clear
1:54 PM 48.9°F 25.0°F 39% 30.51 in 10.0 miles WNW 10.4 mph - N/A   Clear
2:54 PM 48.9°F 25.0°F 39% 30.52 in 10.0 miles WNW 13.8 mph - N/A   Clear
3:54 PM 48.0°F 25.0°F 41% 30.53 in 10.0 miles WNW 8.1 mph - N/A   Clear
4:54 PM 46.0°F 24.1°F 42% 30.53 in 10.0 miles NW 3.5 mph - N/A   Clear
5:54 PM 43.0°F 25.0°F 49% 30.54 in 10.0 miles Calm Calm - N/A   Clear
6:54 PM 39.0°F 25.0°F 57% 30.53 in 10.0 miles North 3.5 mph - N/A   Clear
7:54 PM 39.9°F 26.1°F 58% 30.55 in 10.0 miles Calm Calm - N/A   Clear
8:54 PM 37.9°F 27.0°F 65% 30.54 in 10.0 miles NE 5.8 mph - N/A   Clear
9:54 PM 39.0°F 25.0°F 57% 30.56 in 10.0 miles North 4.6 mph - N/A   Clear
10:54 PM 39.0°F 26.1°F 60% 30.55 in 10.0 miles NNE 6.9 mph - N/A   Clear
11:54 PM 37.4°F 24.8°F 60% 30.54 in 10.0 miles NE 4.6 mph - N/A   Clear
Astronomy
Sunrise:07:21 AM (EST) Moon Rise:05:59 AM (EST)1/10
Sunset:04:54 PM (EST) Moon Set:03:59 PM (EST)1/10
Moon Phase
Jan. 10 Jan. 11 Jan. 18 Jan. 26 Feb. 03

Copyright © 2014 The Weather Underground, Inc.